TimeEST,TemperatureF,Dew PointF,Humidity,Sea Level PressureIn,VisibilityMPH,Wind Direction,Wind SpeedMPH,Gust SpeedMPH,PrecipitationIn,Events,Conditions,WindDirDegrees,DateUTC
12:54 AM,32.0,26.1,79,30.08,10.0,Calm,Calm,-,N/A,,Clear,0,2012-11-23 05:54:00
1:54 AM,30.9,26.1,82,30.06,10.0,North,3.5,-,N/A,,Clear,350,2012-11-23 06:54:00
2:54 AM,28.0,25.0,88,30.04,10.0,North,3.5,-,N/A,,Clear,10,2012-11-23 07:54:00
3:54 AM,28.0,25.0,88,30.01,10.0,Calm,Calm,-,N/A,,Partly Cloudy,0,2012-11-23 08:54:00
4:54 AM,28.9,26.1,89,29.99,10.0,Calm,Calm,-,N/A,,Mostly Cloudy,0,2012-11-23 09:54:00
5:54 AM,28.0,25.0,88,29.97,10.0,Calm,Calm,-,N/A,,Clear,0,2012-11-23 10:54:00
6:54 AM,27.0,25.0,92,29.96,10.0,Calm,Calm,-,N/A,,Clear,0,2012-11-23 11:54:00
7:54 AM,28.0,26.1,92,29.94,10.0,Calm,Calm,-,N/A,,Clear,0,2012-11-23 12:54:00
8:54 AM,34.0,28.9,82,29.92,10.0,NW,3.5,-,N/A,,Partly Cloudy,320,2012-11-23 13:54:00
9:08 AM,35.6,28.4,75,29.87,10.0,Calm,Calm,-,N/A,,Mostly Cloudy,0,2012-11-23 14:08:00
9:54 AM,41.0,30.9,67,29.88,10.0,WNW,3.5,-,N/A,,Overcast,300,2012-11-23 14:54:00
10:54 AM,43.0,32.0,65,29.86,10.0,SSW,5.8,-,0.00,Rain,Light Rain,210,2012-11-23 15:54:00
11:54 AM,44.1,37.0,76,29.84,10.0,SW,8.1,-,0.00,Rain,Light Rain,220,2012-11-23 16:54:00
12:54 PM,46.0,43.0,89,29.82,4.0,SW,13.8,23.0,0.00,Rain,Light Rain,220,2012-11-23 17:54:00
1:03 PM,46.4,44.6,93,29.78,5.0,SW,12.7,23.0,0.00,Rain,Light Rain,230,2012-11-23 18:03:00
1:40 PM,46.4,44.6,93,29.77,7.0,SW,10.4,-,0.00,,Overcast,220,2012-11-23 18:40:00
1:54 PM,46.0,44.1,93,29.79,4.0,SSW,11.5,-,0.00,Rain,Light Rain,210,2012-11-23 18:54:00
2:39 PM,46.4,44.6,93,29.76,9.0,SW,10.4,19.6,0.00,,Overcast,220,2012-11-23 19:39:00
2:49 PM,46.4,44.6,93,29.76,8.0,SW,11.5,-,0.00,Rain,Light Rain,220,2012-11-23 19:49:00
2:54 PM,46.0,44.1,93,29.80,10.0,SSW,11.5,-,0.00,,Overcast,210,2012-11-23 19:54:00
3:54 PM,46.0,43.0,89,29.78,10.0,SSW,10.4,-,N/A,,Overcast,210,2012-11-23 20:54:00
4:49 PM,46.4,42.8,87,29.75,10.0,SW,10.4,-,N/A,,Mostly Cloudy,230,2012-11-23 21:49:00
4:54 PM,46.0,42.1,86,29.78,10.0,SSW,12.7,17.3,N/A,,Mostly Cloudy,210,2012-11-23 21:54:00
5:04 PM,46.4,42.8,87,29.74,10.0,SW,10.4,-,N/A,,Scattered Clouds,220,2012-11-23 22:04:00
5:54 PM,46.0,41.0,83,29.78,10.0,SSW,12.7,20.7,N/A,,Mostly Cloudy,210,2012-11-23 22:54:00
6:02 PM,46.4,41.0,81,29.74,10.0,SSW,15.0,23.0,N/A,,Overcast,210,2012-11-23 23:02:00
6:54 PM,42.1,28.9,60,29.83,10.0,West,16.1,27.6,0.01,,Partly Cloudy,280,2012-11-23 23:54:00
7:54 PM,39.0,28.0,65,29.87,10.0,West,23.0,33.4,N/A,,Overcast,280,2012-11-24 00:54:00
8:54 PM,35.1,23.0,61,29.89,10.0,West,16.1,28.8,N/A,,Overcast,270,2012-11-24 01:54:00
9:54 PM,33.1,21.9,64,29.90,10.0,West,15.0,24.2,0.00,,Overcast,260,2012-11-24 02:54:00
10:20 PM,32.0,21.2,64,29.86,10.0,West,20.7,28.8,N/A,,Overcast,270,2012-11-24 03:20:00
10:54 PM,32.0,21.9,66,29.89,10.0,West,12.7,26.5,N/A,,Overcast,270,2012-11-24 03:54:00
11:15 PM,32.0,21.2,64,29.86,10.0,West,16.1,23.0,N/A,,Overcast,280,2012-11-24 04:15:00
11:54 PM,30.0,21.9,72,29.89,10.0,West,10.4,20.7,0.00,,Overcast,260,2012-11-24 04:54:00